Location: UBC Liquid-Mirror Observatory
(49.2876°N, 122.5728°W)
Time: 15:54:22
(UTC-08:00)

KITSAT 1 - Visible Passes

Search period start: 12 December 2017 00:00
Search period end: 22 December 2017 00:00
Orbit: 1303 x 1327 km, 66.1° (Epoch: 11 December)

Date Brightness Start Highest point End Pass type
(mag) Time Alt. Az. Time Alt. Az. Time Alt. Az.
12 Dec 10.5 17:55:01 10° SW 18:03:06 69° NW 18:10:10 15° NE visible
12 Dec 11.5 19:53:04 10° W 20:00:03 30° NNW 20:02:09 27° N visible
12 Dec 12.3 21:51:51 10° NW 21:54:08 17° NNW 21:54:08 17° NNW visible
13 Dec 10.8 18:11:28 10° WSW 18:19:23 54° NW 18:25:53 16° NNE visible
13 Dec 11.6 20:10:06 10° WNW 20:16:46 27° NNW 20:17:52 26° N visible
13 Dec 12.4 22:08:25 10° NW 22:09:50 15° NNW 22:09:50 15° NNW visible
14 Dec 10.4 16:31:51 10° SSW 16:39:51 68° ESE 16:47:56 10° NE visible
14 Dec 11.1 18:28:07 10° WSW 18:35:47 43° NW 18:41:34 18° NNE visible
14 Dec 11.7 20:27:06 10° WNW 20:33:32 25° N 20:33:32 25° N visible
14 Dec 12.6 22:24:49 10° NW 22:25:31 12° NW 22:25:31 12° NW visible
15 Dec 10.3 16:47:45 10° SW 16:55:53 89° SE 17:04:06 10° NE visible
15 Dec 11.3 18:44:57 10° W 18:52:18 36° NNW 18:57:15 19° NNE visible
15 Dec 11.8 20:43:59 10° NW 20:49:13 23° NNW 20:49:13 23° NNW visible
15 Dec 12.7 22:41:06 10° NW 22:41:11 10° NW 22:41:11 10° NW visible
16 Dec 10.5 17:03:56 10° SW 17:12:01 71° NW 17:20:12 10° NE visible
16 Dec 11.5 19:01:56 10° W 19:08:56 30° NNW 19:12:54 21° NNE visible
16 Dec 11.9 21:00:44 10° NW 21:04:52 22° NNW 21:04:52 22° NNW visible
17 Dec 10.8 17:20:21 10° WSW 17:28:18 55° NW 17:36:19 10° NE visible
17 Dec 11.6 19:18:57 10° WNW 19:25:38 27° NNW 19:28:33 22° NNE visible
17 Dec 12.1 21:17:18 10° NW 21:20:31 20° NNW 21:20:31 20° NNW visible
18 Dec 11.1 17:37:00 10° WSW 17:44:41 44° NW 17:52:13 11° NE visible
18 Dec 11.6 19:35:57 10° WNW 19:42:25 25° N 19:44:11 23° N visible
18 Dec 12.2 21:33:43 10° NW 21:36:09 18° NNW 21:36:09 18° NNW visible
19 Dec 11.3 17:53:49 10° W 18:01:11 36° NNW 18:07:51 13° NNE visible
19 Dec 11.6 19:52:51 10° NW 19:59:15 24° N 19:59:49 24° N visible
19 Dec 12.3 21:50:01 10° NW 21:51:47 17° NNW 21:51:47 17° NNW visible
20 Dec 11.5 18:10:47 10° W 18:17:48 31° NNW 18:23:29 15° NNE visible
20 Dec 11.6 20:09:37 10° NW 20:15:27 24° N 20:15:27 24° N visible
20 Dec 12.4 22:06:12 10° NW 22:07:25 15° NNW 22:07:25 15° NNW visible
21 Dec 11.6 18:27:48 10° WNW 18:34:31 27° NNW 18:39:07 17° NNE visible
21 Dec 11.7 20:26:12 10° NW 20:31:05 24° N 20:31:05 24° N visible
21 Dec 12.5 22:22:20 10° NW 22:23:03 13° NNW 22:23:03 13° NNW visible
